Dewpoint
-9 -4 1 -0 -5 -3 -1 -4 -6 -5 -6 5 5 6 9 10 11 9 11 13 13 14 13 12 8 6 7 10 9 5 4 4 -4 -5 -0 -2 0 -4 -1 2 0 -5 -8 -5 -2 1 4 3 -1
-8 -7 -1 -1 -3 -3 -4 -6 -6 -7 -4 7 7 10 9 9 12 13 13 12 13 13 13 12 10 8 8 7 9 7 4 2 -5 -6 -3 1 -3 -1 -0 -5 -9 -9 -4 -1 1 3 7 7 4
-7 -6 -4 -2 -3 -2 -3 -6 -6 -1 8 6 10 9 9 9 10 11 11 13 13 12 12 12 11 8 6 7 9 9 4 5 -3 -5 -1 -3 -1 -2 -7 -8 -5 -3 1 3 3 5 6 5 5
-2 -3 -5 -3 -3 -5 -5 -6 -7 2 4 7 9 10 10 9 10 9 10 12 12 12 9 11 9 8 7 9 11 9 6 -2 -3 -2 -4 -1 -3 -6 -5 -5 -5 -2 3 5 4 5 5 5 5
-2 -1 -4 -4 -4 -5 -7 -7 4 6 7 6 8 7 8 11 12 10 10 11 8 11 12 13 9 10 9 10 11 9 7 -0 -4 -2 0 -2 -4 -4 -6 -6 -5 -1 4 5 5 5 5 6 5
-3 -4 -2 -2 -4 -6 -8 2 4 5 6 6 9 9 10 10 10 11 12 12 11 11 11 11 10 9 9 13 10 9 9 5 2 1 0 -2 -2 -4 -4 -5 -5 1 5 5 5 4 5 5 4
-4 -4 -2 -4 -4 -6 -5 3 5 6 6 8 9 10 9 8 6 11 12 13 13 11 12 13 12 12 12 11 11 10 8 4 7 3 1 -2 -3 -3 -3 -5 -5 2 5 3 3 4 5 5 5
-4 -5 -3 -5 -6 -7 -3 5 6 6 8 10 10 9 8 5 8 11 12 8 8 9 7 12 13 12 8 10 10 8 8 4 9 5 2 -0 -1 -2 -3 -6 -7 -3 4 2 2 2 3 2 2
-5 -5 -4 -5 -7 -8 1 4 6 6 6 10 9 9 8 7 10 11 13 12 10 11 9 12 12 11 10 11 9 7 4 7 8 8 2 1 0 -1 -4 -3 -5 -7 1 2 2 2 2 1 1
-6 -5 -6 -8 -9 -8 2 6 6 7 8 9 10 9 10 10 11 12 11 12 12 13 12 12 12 11 11 10 9 9 7 7 7 8 5 -0 1 -1 -0 1 -1 -4 -6 -4 1 1 1 1 -1
-7 -6 -8 -9 -9 -9 4 6 6 8 8 8 9 9 10 10 11 11 11 11 12 12 12 12 12 12 11 10 8 9 8 7 8 6 6 1 1 -0 2 3 2 -1 -3 -5 -3 -1 -1 -2 -2
-8 -9 -9 -8 -7 -2 6 6 7 8 5 6 7 9 10 10 10 10 11 11 12 12 12 12 12 11 11 11 10 8 5 3 4 5 7 2 1 1 3 3 3 3 2 1 0 -2 -2 -1 -3
-7 -6 -5 -4 -5 -3 5 7 5 6 5 9 9 9 8 9 9 9 10 11 11 11 11 11 11 11 11 11 10 5 -0 3 6 7 5 4 1 2 3 3 3 4 3 3 4 4 4 4 3
-4 -4 -4 -5 -5 5 6 7 7 4 9 10 10 10 9 8 9 8 9 9 10 11 11 11 10 10 10 8 5 1 5 6 7 6 6 4 1 2 3 3 4 4 4 4 5 5 5 5 5
-4 -4 -5 -6 -6 4 4 5 7 4 10 10 11 10 9 9 10 6 9 9 8 10 10 10 10 10 9 8 5 4 4 4 5 6 6 4 2 1 3 3 3 4 4 5 5 6 6 6 5
-4 -4 -3 -6 -7 -4 0 0 2 5 8 11 11 11 10 10 9 7 8 8 8 10 10 10 10 10 9 9 8 4 7 7 6 4 5 3 1 0 1 -0 1 2 4 5 6 7 7 7 6
-3 -3 -3 -3 -6 -4 1 1 2 6 7 10 11 11 10 10 8 8 8 8 8 8 9 10 10 10 9 9 8 9 9 6 4 7 2 1 1 1 1 0 2 3 5 7 7 7 7 7 7
-1 -1 -2 -2 -4 1 3 2 4 7 8 10 10 10 11 10 8 6 7 8 8 8 8 9 9 9 9 8 8 7 5 7 8 5 3 3 2 2 2 1 4 7 7 7 7 8 8 7 7
-3 -2 -2 -3 -4 2 3 2 3 5 8 7 10 10 10 9 8 7 6 7 8 8 7 8 9 9 8 7 6 7 7 7 7 5 2 3 2 5 5 4 6 7 6 7 7 8 8 8 7
-2 -1 -1 -3 -4 0 0 2 3 6 6 6 8 10 10 9 8 8 5 6 8 8 7 7 8 8 7 7 5 5 8 7 6 3 3 2 2 4 7 6 5 6 5 6 8 8 8 8 8
-2 -1 -2 -2 -3 -3 2 3 4 4 5 6 8 8 9 8 8 7 3 4 6 6 7 8 8 7 6 6 7 8 7 5 4 3 2 2 2 6 6 6 6 5 2 3 4 6 8 8 8
-1 -2 -2 -1 -1 1 -1 3 -1 4 6 6 7 7 8 8 8 8 5 3 3 2 5 7 7 6 5 5 5 7 7 5 4 3 2 3 4 3 3 2 -0 2 6 5 2 5 7 7 8
-1 -2 -1 -0 -1 -1 -1 -0 -2 5 6 5 5 6 7 7 7 7 6 1 1 2 1 5 6 5 4 4 4 4 5 4 3 3 4 4 3 3 3 -1 -1 2 2 6 8 7 7 7 7
-2 -1 -0 0 1 4 1 -0 0 5 4 4 3 5 6 7 7 7 7 6 2 1 1 2 5 5 5 5 5 5 6 5 4 4 3 2 2 3 3 1 -1 1 4 6 7 7 7 6 7
-1 -0 4 4 4 4 0 2 -0 -2 2 1 2 3 5 7 7 7 7 7 4 1 1 1 3 4 5 5 5 5 5 4 4 4 4 3 1 1 1 0 -2 4 6 7 8 7 8 8 8
0 0 4 6 5 4 2 5 2 -1 -3 -2 -1 2 4 6 7 7 6 6 6 2 1 0 0 1 2 2 2 3 3 3 3 2 1 1 0 0 -1 -1 -1 0 4 7 7 8 8 6 8
0 1 -1 2 4 7 5 4 -0 -1 -2 -2 -2 2 4 5 6 6 6 6 6 6 2 1 0 -0 -0 -1 -2 -2 -2 0 1 2 1 1 0 1 4 4 5 5 6 6 7 8 7 5 8
-2 -1 2 4 5 7 4 4 2 0 -1 -1 -2 1 3 4 5 5 6 7 6 6 6 3 2 1 0 0 0 -0 -0 -0 0 1 1 1 3 6 8 8 7 6 6 6 8 6 7 8 9
-0 1 2 2 4 4 5 4 0 -0 -1 0 -1 -3 0 3 3 4 4 5 6 6 7 6 3 4 4 2 2 2 2 2 2 3 4 5 6 7 8 8 9 8 8 7 8 8 9 10 9
-2 0 1 4 5 5 4 3 -1 -1 -1 -2 -4 -4 -4 -3 1 2 4 5 6 6 6 7 7 5 4 6 6 5 4 4 4 5 6 7 8 9 9 6 8 9 10 9 9 9 9 9 9
Wind_Speed
3 1 4 1 4 5 3 6 4 8 4 4 3 4 6 3 1 2 6 10 16 27 30 34 38 40 31 6 10 21 23 20 20 23 25 26 28 30 31 30 29 28 28 27 26 25 25 26 26
2 1 2 3 4 3 5 5 4 8 8 12 9 1 4 2 1 1 5 10 20 26 28 27 33 25 31 35 14 21 23 22 21 24 25 28 30 32 32 31 31 30 28 27 25 24 24 24 24
2 1 1 4 3 3 4 5 4 7 10 5 3 2 3 7 5 6 4 7 24 23 25 28 26 23 34 20 26 24 22 19 24 26 28 30 33 33 33 32 32 32 30 27 25 25 24 23 22
2 1 4 4 5 8 6 13 8 4 6 2 4 2 2 4 4 6 3 8 26 25 24 27 25 22 28 27 37 36 27 27 24 27 31 33 33 32 33 33 33 32 30 27 24 25 24 24 23
0 1 3 2 6 5 5 8 4 0 2 3 1 1 1 6 7 8 11 14 15 26 28 27 27 27 22 34 33 33 30 22 24 29 33 34 34 34 33 33 33 32 31 25 21 21 22 22 20
2 2 4 2 5 6 6 6 1 2 5 3 1 3 4 3 6 8 12 14 14 17 21 22 33 32 36 42 44 36 30 23 27 31 34 34 35 34 33 32 32 31 30 24 20 19 20 19 18
6 4 4 4 6 6 4 6 4 3 6 1 1 3 3 6 7 10 14 15 15 14 17 22 27 33 28 31 35 31 30 30 29 32 32 35 34 34 33 32 31 31 30 24 19 21 21 17 16
4 4 2 4 2 6 4 2 1 1 3 1 2 5 4 2 6 8 13 11 14 10 15 22 30 34 28 24 29 29 35 32 30 32 32 33 34 32 32 31 30 30 30 24 19 18 19 16 13
5 3 3 5 3 4 6 2 3 1 4 4 4 8 6 3 5 10 12 12 11 10 13 20 26 34 36 32 28 30 36 30 29 31 32 32 32 32 31 31 29 29 29 25 20 17 14 12 11
5 4 6 6 5 7 6 6 7 3 6 5 6 8 4 3 5 6 6 11 16 14 18 18 25 31 38 38 31 24 30 34 31 31 32 33 33 31 32 30 29 28 27 25 20 15 13 10 9
6 5 5 16 16 15 7 3 5 5 5 6 8 10 7 2 4 5 5 8 13 14 18 24 26 34 30 35 33 31 36 40 36 33 34 34 33 32 31 30 28 26 24 24 21 17 13 9 7
2 11 7 13 10 6 8 7 4 15 5 7 5 8 5 2 1 3 7 7 11 11 29 30 29 34 31 40 33 36 40 40 40 40 36 35 35 33 31 28 26 22 22 20 17 16 13 10 8
5 4 9 19 19 11 12 7 7 12 7 3 5 6 3 3 3 4 6 7 10 18 22 30 31 31 38 32 32 41 43 43 43 40 38 36 35 33 30 27 23 22 19 17 15 13 10 7 6
3 9 16 15 9 9 7 3 2 9 10 9 9 10 6 4 8 9 9 8 9 12 22 36 40 36 29 30 38 40 40 39 39 39 38 36 34 32 28 25 22 18 16 15 12 9 7 5 4
4 8 8 7 4 8 9 2 8 9 15 14 14 12 9 7 11 7 8 8 13 14 17 23 29 28 30 33 36 38 44 39 37 37 36 35 34 29 25 20 17 16 14 13 11 9 7 6 7
5 3 3 4 1 4 13 12 5 13 19 19 18 17 15 11 8 5 7 10 13 11 15 20 24 31 24 39 44 39 35 39 38 35 35 32 30 32 23 23 19 16 15 13 11 9 9 6 7
3 6 5 8 3 2 2 7 4 17 21 17 19 20 19 14 11 9 9 11 12 14 15 20 25 24 34 39 33 38 39 35 34 37 35 34 32 28 27 31 20 17 16 15 13 11 11 11 10
5 4 4 4 5 4 4 10 3 18 20 17 23 22 21 17 12 8 10 11 13 13 13 17 20 26 27 31 40 35 37 39 37 36 34 32 31 30 27 24 20 18 17 16 16 15 14 15 14
3 3 5 8 12 3 10 6 9 13 16 14 21 23 22 20 12 11 10 13 16 15 16 17 20 24 26 32 39 36 38 42 35 34 35 31 32 27 24 22 20 19 19 18 18 18 20 20 19
5 5 13 11 11 6 8 11 3 9 16 23 23 25 27 24 19 19 14 16 19 19 19 20 22 25 27 30 37 42 40 42 35 36 37 39 32 29 24 23 22 19 19 21 23 22 23 23 24
8 6 10 11 6 3 4 6 4 6 7 19 24 28 29 30 27 24 21 21 21 22 23 23 25 24 25 32 38 37 36 38 38 38 35 40 39 27 26 24 24 23 22 23 24 25 28 28 28
9 9 12 14 3 5 5 5 5 6 8 8 18 29 33 34 32 28 25 25 25 21 22 25 26 26 28 31 36 40 41 40 40 41 38 40 39 31 24 26 27 25 24 25 28 29 30 29 31
9 7 10 8 6 1 3 2 7 3 6 10 13 28 35 39 36 36 32 27 25 23 23 26 28 29 31 34 35 36 44 44 41 44 43 48 49 38 30 28 30 29 29 29 29 32 33 34 34
8 3 4 1 2 5 6 6 5 5 8 7 13 26 35 38 41 39 34 30 30 28 26 28 33 34 35 37 39 41 37 43 47 45 43 45 48 44 39 40 35 32 32 32 32 33 34 36 36
5 3 2 3 2 8 6 3 9 8 9 11 14 28 37 40 42 43 41 38 36 35 33 32 36 38 39 39 41 43 41 43 46 47 48 49 46 44 45 44 38 36 34 33 33 35 37 36 34
7 10 5 6 4 6 2 5 5 8 12 19 24 31 37 38 43 45 46 44 42 40 40 38 39 40 42 42 42 43 43 46 46 44 46 46 45 43 42 38 38 38 37 35 39 38 35 21 31
5 6 10 6 1 1 5 6 7 6 5 7 12 16 28 35 42 46 48 48 47 44 46 46 45 44 44 45 45 45 45 46 48 47 47 48 45 42 38 35 34 34 36 38 37 30 28 27 32
9 4 2 2 5 7 4 4 6 8 11 3 6 13 26 35 42 45 45 48 51 50 49 49 49 49 48 48 49 48 47 46 46 46 46 46 43 41 41 37 35 35 37 38 37 36 39 37 32
2 4 4 2 5 8 9 6 7 9 10 9 9 17 23 32 41 46 47 47 49 50 52 52 53 52 52 53 51 50 50 48 46 46 46 44 42 41 36 36 33 33 35 35 37 38 33 30 26
5 7 10 7 4 4 3 12 4 8 9 7 10 17 20 29 37 43 48 46 47 50 50 54 56 56 56 53 52 48 45 42 40 45 44 45 45 44 35 39 35 37 39 38 35 27 23 23 26
Wind_Direction
83 56 7 23 45 59 284 271 304 288 266 236 246 126 118 33 2 182 132 154 161 169 181 183 182 173 175 207 171 166 164 160 167 164 160 152 148 141 139 141 140 138 135 132 130 126 120 114 108
77 330 345 72 77 32 275 256 262 295 277 132 100 199 79 108 77 117 132 181 168 175 180 191 176 187 187 186 220 181 169 163 168 160 154 151 145 142 142 141 139 137 135 133 131 124 117 112 101
91 172 25 88 112 188 245 239 301 299 11 209 102 90 140 154 155 171 216 181 176 176 185 187 207 221 185 203 200 182 165 169 169 157 156 150 146 142 140 138 137 136 135 133 128 121 114 107 99
108 121 72 89 238 250 224 275 269 281 283 353 152 80 147 173 183 186 208 205 195 208 211 198 191 196 199 188 179 177 169 164 162 158 154 150 146 141 140 139 139 137 133 128 125 119 116 109 103
99 90 57 7 262 250 250 263 225 339 251 308 325 271 89 195 206 176 187 195 217 210 194 197 196 193 208 183 180 168 159 152 168 162 155 151 144 142 140 140 140 138 134 130 126 122 119 113 109
75 80 50 288 261 280 276 248 82 266 278 308 318 168 208 197 251 190 179 186 197 206 218 215 212 222 192 177 167 162 149 148 164 162 157 149 146 143 142 140 138 137 135 134 133 133 132 124 110
130 92 201 243 270 303 256 202 158 221 226 201 167 261 188 209 262 197 186 197 218 236 227 205 187 181 153 162 168 158 150 154 171 163 159 151 147 145 141 137 136 139 138 139 135 131 131 127 117
152 96 182 238 229 281 293 229 173 328 256 258 230 231 220 306 218 185 180 194 195 204 235 206 167 164 171 190 167 164 173 157 172 166 160 152 148 143 139 136 137 142 143 139 137 130 126 124 118
170 68 232 249 220 274 264 250 235 142 229 205 227 250 261 267 177 172 175 195 221 211 201 201 185 174 174 180 164 152 150 166 171 168 160 155 149 145 140 136 135 139 144 146 148 140 135 133 119
132 148 234 206 208 271 236 224 199 221 218 225 223 235 251 194 169 178 169 180 190 205 196 191 178 170 165 170 175 171 172 164 171 168 162 164 154 146 141 138 138 141 145 147 153 153 150 144 134
189 211 220 282 282 241 209 251 216 191 261 242 228 217 205 177 204 236 192 181 183 198 195 197 190 170 166 163 157 176 174 176 175 173 171 163 156 150 146 143 142 143 145 148 149 155 151 145 136
185 245 247 288 336 199 166 196 234 207 275 295 232 204 199 185 271 223 226 205 199 183 179 183 183 166 165 166 168 172 171 175 176 177 170 168 161 156 154 148 145 148 147 139 146 154 150 139 132
215 272 298 301 314 243 173 197 225 234 239 193 182 200 181 252 281 269 239 204 210 208 196 183 179 183 170 174 179 172 176 181 181 176 173 171 164 161 158 153 152 153 149 145 150 151 152 144 139
237 277 290 305 288 189 164 234 192 226 189 183 186 206 197 262 285 268 245 238 219 203 198 193 174 176 177 175 171 175 180 180 180 178 174 172 169 164 160 161 156 160 159 163 154 154 154 153 176
290 308 316 252 195 200 153 241 232 230 189 193 197 213 221 228 264 270 236 228 229 218 214 192 189 189 182 175 176 174 180 179 179 177 176 176 171 167 162 162 170 174 183 178 175 184 193 182 203
357 299 -0 266 99 215 177 264 219 195 190 199 205 212 222 233 259 265 232 229 231 226 218 215 231 202 195 180 178 185 177 181 176 177 177 175 173 167 168 185 196 192 196 194 202 208 215 216 226
20 252 242 309 166 215 206 271 248 188 198 206 212 216 219 222 231 221 221 222 217 217 219 221 204 201 190 187 183 175 174 172 174 180 179 179 180 178 198 199 194 201 200 204 214 225 232 240 245
203 236 273 253 282 120 189 263 255 190 199 205 213 222 225 226 237 225 225 222 212 207 216 214 211 208 197 193 178 176 174 172 178 177 171 181 183 191 196 199 199 205 208 216 226 232 242 250 259
147 288 289 271 278 216 211 233 227 203 219 219 214 220 225 230 233 215 221 228 208 206 205 209 207 204 197 195 185 180 177 175 179 181 183 187 192 198 199 205 208 210 221 233 239 240 243 249 251
216 240 273 279 256 161 264 250 204 181 227 217 209 218 224 227 223 216 210 225 212 205 207 201 202 199 193 189 188 192 188 179 184 182 193 201 205 206 210 213 220 228 237 244 241 245 245 247 251
227 215 256 250 317 219 126 308 217 238 233 217 222 227 227 226 226 216 213 216 213 212 203 204 199 199 196 191 189 190 189 188 194 199 202 205 212 214 216 221 226 232 241 246 250 249 248 251 252
240 202 239 264 258 251 151 247 275 231 229 213 206 214 220 224 228 228 221 212 215 215 206 206 209 206 199 196 197 201 202 200 202 208 212 209 214 215 223 233 238 241 249 253 253 252 252 255 256
235 214 226 247 244 164 195 120 260 149 240 242 221 211 219 226 225 227 225 221 219 212 212 206 209 207 203 202 204 207 212 217 219 218 226 221 219 223 234 244 240 242 247 250 254 255 256 257 259
234 272 283 5 161 246 221 176 244 200 218 221 228 212 218 223 225 228 230 224 220 215 212 209 208 206 206 207 209 212 219 218 218 215 216 213 217 228 236 243 245 244 248 252 257 261 260 259 260
154 134 305 298 275 251 224 220 245 229 236 226 212 216 218 219 220 220 223 222 221 216 215 211 208 207 206 207 210 214 218 214 214 217 220 221 224 229 236 242 246 248 250 254 258 261 261 259 258
186 178 174 224 214 254 220 241 252 216 241 245 253 225 218 207 218 221 223 225 222 219 217 214 212 210 208 209 210 211 214 216 217 219 220 222 227 233 242 248 250 251 254 258 263 266 282 257 271
224 187 210 224 13 55 222 283 301 273 303 242 263 214 210 207 215 224 225 226 225 225 222 221 216 216 215 215 213 214 215 217 219 223 225 228 235 243 248 252 254 255 260 262 270 261 260 254 267
218 172 112 359 195 250 267 248 233 305 295 255 245 224 214 219 221 226 227 229 229 230 230 225 224 223 222 222 220 221 221 221 224 228 233 239 245 250 252 250 255 262 263 267 261 257 260 259 261
181 215 213 175 160 232 261 250 212 222 251 265 228 213 226 222 223 227 229 234 236 235 232 231 229 227 228 228 228 227 227 229 233 239 243 248 254 257 263 266 262 262 259 251 256 258 263 253 249
211 213 202 208 227 242 221 252 249 235 259 271 250 203 227 235 232 230 230 232 234 236 237 236 234 232 232 231 230 232 233 239 249 254 252 253 253 256 260 260 265 264 260 267 260 255 252 246 246
Height
1504 1506 1506 1506 1517 1521 1524 1515 1501 1496 1489 1482 1480 1480 1484 1487 1485 1492 1484 1484 1486 1489 1489 1492 1493 1495 1497 1520 1525 1520 1521 1518 1523 1523 1523 1521 1522 1520 1524 1528 1531 1534 1537 1540 1541 1545 1547 1548 1549
1505 1506 1506 1506 1527 1536 1526 1506 1502 1493 1486 1483 1480 1483 1481 1484 1483 1484 1486 1485 1486 1489 1490 1491 1495 1497 1498 1500 1524 1523 1522 1520 1524 1523 1525 1526 1526 1524 1526 1528 1532 1535 1538 1541 1543 1546 1549 1551 1552
1506 1506 1508 1514 1532 1531 1523 1502 1494 1492 1489 1484 1482 1482 1481 1481 1481 1480 1483 1486 1485 1488 1491 1493 1494 1495 1497 1500 1511 1522 1519 1519 1526 1522 1527 1529 1529 1528 1528 1530 1534 1537 1540 1544 1545 1547 1550 1552 1555
1506 1507 1510 1519 1522 1512 1506 1495 1492 1488 1486 1485 1483 1483 1482 1482 1481 1481 1481 1482 1484 1485 1485 1488 1490 1493 1497 1498 1503 1506 1514 1522 1524 1525 1528 1531 1531 1530 1532 1533 1535 1538 1542 1547 1548 1549 1551 1553 1556
1506 1506 1518 1522 1517 1503 1496 1491 1487 1489 1487 1485 1483 1482 1484 1482 1481 1480 1481 1481 1482 1485 1487 1487 1489 1492 1496 1499 1504 1509 1513 1516 1524 1528 1530 1532 1531 1533 1534 1536 1538 1540 1543 1547 1551 1553 1554 1556 1559
1505 1507 1522 1527 1514 1499 1491 1489 1489 1489 1487 1483 1482 1480 1480 1480 1479 1478 1479 1480 1482 1484 1487 1488 1488 1492 1494 1495 1498 1504 1507 1519 1526 1531 1532 1531 1533 1534 1537 1538 1541 1544 1545 1549 1553 1556 1558 1558 1561
1504 1511 1520 1518 1512 1501 1489 1486 1487 1489 1484 1482 1481 1481 1477 1477 1477 1478 1478 1481 1482 1486 1485 1485 1484 1490 1483 1489 1500 1502 1510 1518 1527 1530 1533 1532 1533 1537 1538 1541 1543 1547 1548 1551 1555 1558 1560 1562 1564
1502 1506 1514 1514 1508 1503 1489 1486 1485 1485 1483 1481 1479 1477 1475 1473 1475 1476 1479 1479 1481 1484 1483 1483 1483 1487 1487 1496 1500 1505 1510 1516 1525 1528 1533 1533 1536 1540 1540 1542 1545 1549 1551 1553 1557 1560 1562 1564 1566
1502 1513 1520 1509 1502 1493 1489 1486 1484 1483 1481 1478 1477 1474 1473 1470 1473 1475 1479 1481 1478 1478 1480 1481 1483 1488 1489 1496 1506 1507 1512 1519 1523 1529 1533 1537 1539 1540 1542 1543 1547 1551 1552 1556 1558 1561 1563 1565 1568
1500 1513 1504 1494 1490 1490 1486 1485 1482 1483 1478 1476 1474 1471 1470 1468 1471 1475 1478 1480 1479 1480 1482 1482 1484 1486 1490 1495 1500 1506 1511 1519 1525 1530 1534 1538 1540 1542 1542 1545 1548 1552 1554 1557 1560 1562 1565 1567 1569
1496 1501 1491 1483 1485 1483 1482 1483 1482 1480 1479 1474 1472 1469 1470 1469 1469 1474 1478 1480 1479 1482 1483 1483 1485 1487 1490 1495 1494 1505 1509 1515 1520 1527 1533 1538 1540 1542 1544 1545 1548 1553 1554 1557 1561 1564 1567 1568 1571
1495 1489 1488 1482 1482 1481 1480 1482 1479 1479 1475 1472 1470 1470 1470 1467 1469 1472 1474 1479 1480 1479 1479 1484 1484 1487 1491 1494 1498 1502 1509 1514 1520 1528 1533 1536 1538 1541 1544 1547 1549 1553 1555 1556 1563 1566 1567 1569 1571
1491 1486 1484 1481 1479 1477 1479 1478 1478 1475 1473 1473 1470 1472 1467 1468 1468 1470 1473 1475 1478 1479 1482 1484 1485 1487 1491 1494 1497 1502 1508 1513 1520 1525 1530 1535 1538 1542 1545 1547 1551 1555 1555 1557 1563 1566 1567 1569 1572
1486 1485 1480 1477 1476 1476 1477 1477 1478 1473 1473 1473 1472 1474 1469 1468 1468 1468 1471 1473 1477 1480 1482 1482 1482 1486 1489 1494 1497 1502 1509 1516 1521 1525 1530 1535 1539 1541 1545 1549 1551 1556 1557 1559 1562 1565 1568 1569 1570
1483 1484 1479 1473 1472 1475 1475 1480 1474 1468 1471 1472 1472 1472 1470 1470 1469 1468 1469 1473 1476 1478 1483 1482 1483 1486 1491 1494 1499 1504 1506 1513 1521 1526 1531 1535 1539 1542 1545 1548 1552 1556 1558 1560 1561 1565 1568 1569 1571
1484 1485 1489 1471 1470 1469 1473 1477 1464 1465 1468 1469 1471 1470 1471 1469 1468 1467 1468 1472 1473 1476 1479 1481 1485 1487 1489 1495 1499 1503 1509 1516 1520 1526 1532 1537 1540 1542 1545 1551 1553 1555 1557 1559 1563 1565 1568 1569 1572
1490 1498 1487 1477 1468 1471 1474 1470 1459 1463 1466 1467 1468 1469 1470 1468 1467 1469 1470 1471 1474 1475 1479 1482 1483 1488 1492 1495 1500 1504 1509 1517 1522 1527 1532 1537 1540 1543 1548 1549 1552 1555 1556 1559 1561 1564 1567 1569 1571
1493 1493 1485 1482 1468 1469 1473 1470 1462 1463 1464 1464 1465 1466 1468 1467 1465 1467 1469 1470 1474 1476 1479 1482 1485 1487 1490 1494 1501 1506 1511 1516 1522 1527 1530 1536 1539 1543 1545 1548 1551 1553 1556 1559 1560 1562 1565 1568 1570
1479 1483 1488 1478 1464 1469 1470 1465 1463 1463 1464 1463 1463 1464 1464 1464 1466 1466 1468 1469 1474 1477 1478 1481 1485 1486 1490 1495 1501 1506 1509 1514 1520 1525 1530 1535 1537 1540 1543 1546 1550 1551 1554 1557 1560 1562 1564 1566 1568
1480 1483 1483 1474 1462 1467 1466 1464 1459 1461 1457 1456 1458 1460 1461 1464 1464 1465 1466 1470 1472 1476 1477 1480 1483 1486 1489 1494 1500 1505 1507 1513 1519 1524 1529 1533 1535 1538 1541 1544 1547 1549 1552 1554 1557 1559 1561 1563 1565
1476 1479 1477 1477 1463 1461 1465 1469 1461 1455 1458 1457 1455 1457 1459 1460 1461 1462 1464 1468 1471 1473 1475 1478 1482 1486 1490 1495 1500 1505 1509 1513 1517 1521 1525 1530 1533 1537 1539 1542 1545 1547 1550 1551 1554 1556 1558 1559 1560
1475 1463 1467 1469 1473 1478 1460 1486 1463 1456 1452 1454 1453 1452 1452 1454 1458 1461 1463 1466 1469 1471 1474 1477 1481 1485 1489 1494 1498 1502 1505 1510 1514 1519 1525 1528 1532 1533 1536 1540 1543 1544 1546 1547 1550 1552 1552 1554 1555
1462 1457 1462 1464 1469 1465 1464 1478 1463 1455 1454 1448 1445 1444 1445 1447 1451 1455 1458 1462 1467 1471 1472 1475 1479 1483 1487 1490 1495 1500 1503 1508 1513 1517 1519 1524 1528 1531 1534 1536 1538 1539 1541 1543 1545 1546 1547 1548 1549
1449 1456 1458 1462 1466 1477 1463 1469 1466 1458 1443 1436 1435 1438 1439 1442 1447 1452 1458 1462 1465 1468 1471 1473 1475 1479 1482 1486 1490 1494 1498 1503 1507 1511 1514 1518 1523 1526 1528 1531 1533 1534 1536 1537 1539 1540 1540 1541 1542
1452 1461 1483 1483 1480 1470 1455 1463 1447 1437 1431 1426 1426 1428 1432 1435 1440 1446 1450 1455 1460 1462 1466 1469 1471 1474 1477 1480 1484 1488 1492 1496 1500 1505 1509 1514 1516 1519 1522 1526 1528 1529 1531 1532 1533 1533 1533 1533 1532
1449 1455 1479 1476 1480 1470 1453 1458 1441 1425 1423 1420 1420 1422 1425 1429 1433 1438 1443 1447 1452 1455 1459 1462 1465 1469 1471 1475 1478 1482 1487 1491 1495 1500 1504 1508 1510 1514 1519 1520 1522 1524 1525 1526 1527 1528 1528 1521 1526
1442 1452 1443 1457 1461 1471 1456 1442 1427 1419 1418 1416 1415 1418 1423 1425 1427 1430 1436 1441 1445 1449 1451 1453 1458 1462 1466 1468 1473 1476 1481 1486 1491 1496 1500 1503 1506 1510 1513 1516 1517 1518 1519 1520 1520 1523 1522 1519 1521
1430 1434 1450 1458 1467 1469 1454 1448 1442 1425 1418 1415 1413 1413 1417 1421 1422 1424 1429 1434 1438 1441 1445 1451 1453 1455 1459 1464 1468 1472 1477 1484 1490 1494 1496 1499 1502 1504 1506 1507 1509 1510 1511 1512 1515 1511 1515 1515 1515
1435 1438 1437 1440 1451 1453 1455 1449 1423 1419 1413 1412 1409 1407 1410 1416 1417 1418 1421 1426 1430 1436 1441 1443 1448 1453 1455 1460 1466 1471 1476 1482 1488 1490 1490 1492 1495 1497 1498 1498 1500 1502 1503 1500 1506 1506 1508 1507 1509
1423 1426 1428 1442 1446 1449 1450 1424 1410 1411 1409 1408 1404 1402 1406 1410 1412 1413 1417 1421 1425 1428 1431 1434 1439 1444 1447 1455 1461 1467 1475 1481 1486 1485 1486 1485 1486 1487 1491 1489 1491 1494 1496 1496 1496 1497 1500 1501 1502